User: anonymous
Location: Owatonna
(44.0840°N, 93.2260°W)
Time: 08:35:47
(UTC-05:00)
Language:

Cosmos 839 Rocket - Orbit

View from above orbital plane
View from above orbital plane
View from above satellite
View from above satellite

Ground track
Ground track

The orbit data is extracted from the following two-line orbital elements,

1 09013U 76067B   14107.88680906  .00000020  00000-0  65992-4 0  4865
2 09013 065.8656 091.3263 0713129 166.7323 195.3982 12.35300776703827
Epoch (UTC): 17 April 2014 21:17:00
Eccentricity: 0.0713129
inclination: 65.8656°
perigee height: 963 km
apogee height: 2090 km
right ascension of ascending node: 91.3263°
argument of perigee: 166.7323°
revolutions per day: 12.35300776
mean anomaly at epoch: 195.3982°
orbit number at epoch: 70382

The dashed part of the orbit path shows where the satellite is in the earth's shadow,  

DLR